Location: ???????
(55.4362°N, 38.1183°E)
Time: 18:02:08
(UTC+00:00)

Cosmos 2278 Rocket - Pass Details

Date: 30 October 2021
Orbit: 841 x 845 km, 71.0° (Epoch: 28 November)

Event Time Altitude Azimuth Distance (km) Brightness Sun altitude
Rises 18:02:15 0° 319° (NW) 3,417 6.3 -35.0°
Reaches altitude 10° 18:05:25 10° 302° (WNW) 2,476 5.4 -35.4°
Maximum altitude 18:09:09 18° 261° (W) 1,945 4.5 -35.8°
Enters shadow 18:10:54 16° 238° (WSW) 2,067 4.4 -36.0°
